Weather History for Cuiaba Marechal Ron, Brazil

Change the Weather History Date:

Saturday, August 31, 2013

  Actual Average Record
Temperature  
Mean Temperature 86 °F -  
Max Temperature 102 °F 92 °F 105 °F (1999)
Min Temperature 71 °F 72 °F 60 °F (2003)
Cooling Degree Days 22    
Growing Degree Days 36 (Base 50)    
Moisture  
Dew Point 56 °F    
Average Humidity 38    
Maximum Humidity 57    
Minimum Humidity 20    
Precipitation  
Precipitation 0.00 in - - ()
Sea Level Pressure  
Sea Level Pressure 29.88 in    
Wind  
Wind Speed 6 mph ()    
Max Wind Speed 16 mph    
Max Gust Speed -    
Visibility 6.1 miles    
Events      
Averages and records for this station are not official NWS values.
T = Trace of Precipitation, MM = Missing Value Source: Averaged Metar Reports

Daily Weather History Graph

Daily Weather History Graph

Search for Another Location

Airport:

Trip Planner

Search our weather history database for the weather conditions in past years. The results will help you decide how hot, cold, wet, or windy it might be!

Date:

Astronomy

Aug. 31, 2013 Rise Set
Actual Time 5:50 AM AMT 5:38 PM AMT
Civil Twilight 5:29 AM AMT 6:00 PM AMT
Nautical Twilight 5:04 AM AMT 6:25 PM AMT
Astronomical Twilight 4:39 AM AMT 6:50 PM AMT
Moon 2:06 AM AMT (8/31) 1:45 PM AMT (8/31)
Length of Visible Light 12h 31m
Length of Day
11h 47m
Waning Crescent, 21% of the Moon is Illuminated
Aug 31
Waning Crescent
Sep 5
New
Sep 12
First Quarter
Sep 19
Full
Sep 26
Last Quarter

Hourly Weather History & Observations

Time (AMT) Temp. Heat Index Dew Point Humidity Pressure Visibility Wind Dir Wind Speed Gust Speed Precip Events Conditions
12:00 AM 77.0 °F - 50.0 °F 39% 29.92 in - NNW 5.8 mph - N/A   Clear
1:00 AM 75.2 °F - 51.8 °F 44% 29.89 in - NW 8.1 mph - N/A   Clear
2:00 AM 75.2 °F - 51.8 °F 44% 29.89 in - North 3.5 mph - N/A   Clear
3:00 AM 73.4 °F - 53.6 °F 50% 29.89 in - NW 5.8 mph - N/A   Clear
4:00 AM 73.4 °F - 53.6 °F 50% 29.89 in - NNW 5.8 mph - N/A   Clear
5:00 AM 71.6 °F - 53.6 °F 53% 29.89 in - NNW 4.6 mph - N/A   Clear
6:00 AM 71.6 °F - 55.4 °F 57% 29.92 in - NNW 3.5 mph - N/A   Clear
7:00 AM 73.4 °F - 57.2 °F 57% 29.92 in - NW 4.6 mph - N/A   Clear
8:00 AM 80.6 °F 81.1 °F 59.0 °F 48% 29.95 in - NNW 6.9 mph - N/A   Clear
9:00 AM 87.8 °F 87.1 °F 59.0 °F 38% 29.95 in 5.6 mi North 6.9 mph - N/A   Unknown
10:00 AM 95.0 °F 94.4 °F 59.0 °F 30% 29.95 in - North 6.9 mph - N/A   Clear
11:00 AM 98.6 °F 97.6 °F 57.2 °F 25% 29.92 in - NNE 16.1 mph - N/A   Clear
12:00 PM 98.6 °F 97.2 °F 55.4 °F 24% 29.89 in - NNE 11.5 mph - N/A   Clear
1:00 PM 98.6 °F 97.2 °F 55.4 °F 24% 29.83 in 6.2 mi NNE 9.2 mph - N/A   Partly Cloudy
2:00 PM 100.4 °F 98.8 °F 55.4 °F 22% 29.80 in 6.2 mi North 9.2 mph - N/A   Scattered Clouds
3:00 PM 102.2 °F 100.4 °F 53.6 °F 20% 29.80 in 6.2 mi SW 9.2 mph - N/A   Scattered Clouds
4:00 PM 100.4 °F 98.4 °F 53.6 °F 21% 29.80 in 6.2 mi West 4.6 mph - N/A   Scattered Clouds
5:00 PM 96.8 °F 94.4 °F 53.6 °F 23% 29.80 in 6.2 mi WNW 9.2 mph - N/A   Scattered Clouds
6:00 PM 91.4 °F 89.4 °F 55.4 °F 29% 29.80 in 6.2 mi North 3.5 mph - N/A   Partly Cloudy
7:00 PM 86.0 °F 84.9 °F 57.2 °F 37% 29.83 in - ENE 3.5 mph - N/A   Clear
8:00 PM 84.2 °F 83.8 °F 59.0 °F 42% 29.86 in - ESE 3.5 mph - N/A   Clear
9:00 PM 82.4 °F 82.9 °F 60.8 °F 48% 29.86 in - NNE 2.3 mph - N/A   Clear
10:00 PM 84.2 °F 83.8 °F 59.0 °F 42% 29.89 in - NNE 5.8 mph - N/A   Clear
11:00 PM 84.2 °F 83.5 °F 57.2 °F 40% 29.89 in - NE 3.5 mph - N/A   Clear